Yakima, WA
on Monday, January 7, 2013

Monday
Previous Day Next Day
Daily Summary
 ActualAverageRecord
Temperature
Mean Temperature °F 29°F  
Max Temperature 55°F 36°F 61°F (1962)
Min Temperature 29°F 22°F -11°F (1974)
Degree Days
Heating Degree Days 23 36  
Month to date heating degree days 244 255  
Since 1 July heating degree days 2458 2918  
Cooling Degree Days 0 0  
Month to date cooling degree days 0 0  
Year to date cooling degree days 0 0  
Moisture
Dew Point 27°F   
Average Humidity 60    
Maximum Humidity 85    
Minimum Humidity 35    
Precipitation
Precipitation 0.00 in 0.04 in 0.36 in (1990)
Month to date precipitation 0.09 0.30  
Year to date precipitation 0.09 0.30  
Snow
Snow 0.00 in 0.30 in 5.40 in (2005)
Month to date snowfall 1.1 1.7  
Year to date snowfall 1.1 1.7  
Since 1 July snowfall 15.3 14.7  
Snow Depth 0.00 in   
Wind
Wind Speed 9 mph   
Max Wind Speed 47 mph   
Max Gust Speed 62 mph   
Visibility 7 miles   
Events     

Key: T is trace of precipitation, MM is missing value
Source: NWS Daily Summary
Time(PST)TemperatureDew PointHumidity Pressure Visibility Wind DirectionWind SpeedGust SpeedPrecipitationEvents Conditions
12:53 AM 28.9°F 25.0°F 85% 30.09 in 5.0 miles West 3.5 mph - N/A   Overcast
1:51 AM 28.4°F 24.8°F 86% 30.03 in 5.0 miles Calm Calm - N/A   Mostly Cloudy
1:53 AM 28.9°F 25.0°F 85% 30.07 in 5.0 miles Calm Calm - N/A   Overcast
2:38 AM 28.4°F 24.8°F 86% 30.03 in 6.0 miles SW 4.6 mph - N/A   Overcast
2:53 AM 28.9°F 25.0°F 85% 30.07 in 6.0 miles WSW 3.5 mph - N/A   Overcast
3:28 AM 30.2°F 24.8°F 80% 30.01 in 6.0 miles Calm Calm - N/A   Haze
3:50 AM 30.2°F 24.8°F 80% 30.00 in 7.0 miles Calm Calm - N/A   Overcast
3:53 AM 30.0°F 24.1°F 79% 30.04 in 6.0 miles Calm Calm - N/A   Haze
4:21 AM 30.2°F 24.8°F 80% 29.99 in 6.0 miles Calm Calm - N/A   Haze
4:53 AM 28.9°F 24.1°F 82% 30.02 in 6.0 miles Calm Calm - N/A   Haze
5:53 AM 30.0°F 25.0°F 82% 29.99 in 6.0 miles Calm Calm - N/A   Haze
6:51 AM 30.2°F 24.8°F 80% 29.93 in 6.0 miles Calm Calm - N/A   Haze
6:53 AM 30.0°F 24.1°F 79% 29.97 in 6.0 miles Calm Calm - N/A   Haze
7:53 AM 30.0°F 25.0°F 82% 29.97 in 6.0 miles Calm Calm - N/A   Haze
8:39 AM 30.2°F 26.6°F 86% 29.92 in 4.0 miles Calm Calm - N/A   Overcast
8:53 AM 30.9°F 26.1°F 82% 29.96 in 4.0 miles North 3.5 mph - N/A   Haze
9:53 AM 32.0°F 26.1°F 79% 29.95 in 5.0 miles SW 3.5 mph - N/A   Haze
10:53 AM 33.8°F 26.6°F 75% 29.91 in 6.0 miles West 4.6 mph - N/A   Haze
11:33 AM 35.6°F 26.6°F 70% 29.89 in 5.0 miles Calm Calm - N/A   Haze
11:53 AM 35.1°F 27.0°F 72% 29.91 in 6.0 miles West 3.5 mph - N/A   Haze
12:53 PM 37.0°F 28.9°F 73% 29.91 in 8.0 miles Calm Calm - N/A   Partly Cloudy
1:53 PM 36.0°F 28.9°F 76% 29.88 in 4.0 miles SE 8.1 mph - N/A   Haze
2:53 PM 37.4°F 28.4°F 70% 29.87 in 4.0 miles ESE 5.8 mph - N/A   Haze
3:31 PM 53.6°F 30.2°F 41% 29.84 in 10.0 miles WNW 28.8 mph 43.7 mph N/A   Squalls
3:43 PM 51.8°F 30.2°F 44% 29.84 in 10.0 miles West 29.9 mph 43.7 mph N/A   Clear
3:53 PM 51.1°F 30.9°F 46% 29.86 in 10.0 miles West 36.8 mph 48.3 mph N/A   Clear
4:53 PM 51.1°F 30.0°F 44% 29.88 in 10.0 miles West 39.1 mph 54.1 mph N/A   Clear
5:53 PM 53.1°F 26.1°F 35% 29.89 in 10.0 miles West 34.5 mph 57.5 mph N/A   Clear
6:53 PM 52.0°F 27.0°F 38% 29.92 in 10.0 miles West 13.8 mph 36.8 mph N/A   Clear
7:53 PM 54.0°F 27.0°F 35% 29.97 in 10.0 miles West 10.4 mph 21.9 mph N/A   Partly Cloudy
8:53 PM 51.1°F 28.0°F 41% 29.99 in 10.0 miles NW 13.8 mph - N/A   Clear
9:53 PM 50.0°F 28.0°F 43% 30.00 in 10.0 miles WNW 23.0 mph 26.5 mph N/A   Clear
10:53 PM 48.9°F 27.0°F 43% 30.04 in 10.0 miles NNW 13.8 mph - N/A   Clear
11:53 PM 45.0°F 27.0°F 49% 30.06 in 10.0 miles West 5.8 mph - N/A   Clear
Moon Phase
Jan. 07 Jan. 11 Jan. 18 Jan. 26 Feb. 03
Sunrise:07:45 AM (PST) Moon Rise:03:11 AM (PST)1/7
Sunset:04:32 PM (PST) Moon Set:12:50 PM (PST)1/7

Copyright © 2014 The Weather Underground, Inc.